Location: Asheville, NC
(35.6000°N, 82.5500°W)
Time: 13:32:21
(UTC-05:00)

Vanguard 1 Rocket - Pass Details

Date: 15 February 2018
Orbit: 655 x 4222 km, 34.3° (Epoch: 21 February)

Event Time Altitude Azimuth Distance (km) Brightness Sun altitude
Rises 19:39:07 0° 162° (SSE) 6,174 11.5 -18.3°
Enters shadow 19:50:58 10° 125° (SE) 6,355 11.2 -20.7°
Reaches altitude 10° 19:52:08 10° 122° (ESE) 6,435 - -20.9°
Maximum altitude 19:52:51 10° 120° (ESE) 6,489 - -21.0°
Drops below altitude 10° 19:53:36 10° 118° (ESE) 6,548 - -21.2°
Sets 20:10:36 0° 82° (E) 8,403 - -24.6°
